[[{"header":{"parameterUnit":"m.s-1","parameterCategory":1,"la1":30.2991,"la2":30.254,"lo1":-89.0895,"lo2":-89.0444,"dy":0.0017,"dx":0.0017,"nx":28,"ny":28,"refTime":"2025-01-19T09:00:00:Z","depth":0,"parameterNumber":2,"parameterNumberName":"U-component_of_WINDS"},"data":[0,0,0,0,0,0,0,0,0,0,0,0,0,0,0,0,0,0,0,0,0,0,0,0,0,0,0,0,0,0,0,0,0,0,0,0,0,0,0,0,0,0,0,0,0,0,0,0,0,0,0,0,0,0,0,0,0,0,1.1607,1.1606,0,1.1501,1.1499,1.1498,1.1376,1.1375,1.1373,1.1371,1.1265,1.1264,1.1262,0,0,0,0,0,0,0,0,0,0,0,0,0,1.1711,1.171,1.1607,1.1606,1.1604,1.1501,1.1499,1.1498,1.1377,1.1374,1.1372,1.137,1.1265,1.1264,1.1262,0,0,0,0,0,0,0,0,0,0,0,0,0,1.1641,1.1709,1.1607,1.1531,1.1523,1.1501,1.1499,1.1497,1.1377,1.1374,1.1372,1.1369,1.1265,1.1264,1.1262,1.1307,0,0,1.1257,1.1256,0,0,0,0,0,0,0,0,1.1646,1.1638,1.1544,1.1537,1.1528,1.1449,1.1497,1.1434,1.1378,1.1433,1.1371,1.1368,1.1328,1.1321,1.1307,1.1302,1.1297,1.1257,1.1256,1.1255,1.1255,0,0,0,0,0,0,0,1.1651,1.1642,1.1565,1.1543,1.1533,1.1505,1.1492,1.1484,1.1397,1.1428,1.1419,1.1408,1.1323,1.1309,1.1304,1.1296,1.1257,1.1255,1.1254,1.1254,1.1325,1.1328,0,0,0,0,0,0,1.1666,1.1646,1.1568,1.1562,1.1581,1.1505,1.149,1.1477,1.1397,1.1382,1.141,1.1402,1.1314,1.1306,1.13,1.1348,1.1255,1.1254,1.1253,1.1322,1.1326,1.1329,0,0,0,0,0,0,1.1669,1.166,1.1573,1.1602,1.1588,1.1506,1.1492,1.1476,1.1462,1.1384,1.1368,1.1411,1.1311,1.1302,1.1307,1.1343,1.1253,1.1251,1.1319,1.1323,1.1327,1.1445,0,0,0,0,0,0,1.1672,1.1662,1.1676,1.1603,1.1587,1.158,1.1494,1.1476,1.1459,1.1448,1.1381,1.1367,1.1308,1.131,1.1305,1.1339,1.125,1.1315,1.1321,1.1326,1.1438,1.1453,1.1466,0,0,0,0,0,1.1676,1.1713,1.1678,1.1669,1.1603,1.1582,1.1573,1.1504,1.1462,1.1477,1.1428,1.1369,1.1341,1.1311,1.1305,1.1339,1.1313,1.1319,1.1326,1.1431,1.145,1.1466,0,0,0,0,0,0,1.1792,1.1702,1.1661,1.1675,1.1637,1.1561,1.1577,1.1526,1.1499,1.149,1.1407,1.1393,1.1408,1.1374,1.1343,1.138,1.1318,1.1324,1.1401,1.1418,1.1432,1.1439,1.1249,0,0,0,0,0,1.182,1.1809,1.1731,1.1751,1.1734,1.166,1.1648,1.1598,1.1556,1.1539,1.149,1.1452,1.1435,1.1425,1.1404,1.1433,1.1418,1.1454,1.1468,1.1481,1.1486,1.1502,1.1517,1.1351,1.1351,1.135,0,0,1.1875,1.1825,1.1823,1.1773,1.1737,1.173,1.1647,1.1641,1.1635,1.1538,1.1539,1.1503,1.1455,1.1473,1.1479,1.1446,1.1529,1.1489,1.1499,1.1498,1.151,1.1526,1.154,1.1355,1.1354,1.1354,0,0,1.1973,1.1933,1.1946,1.1914,1.1862,1.1813,1.1817,1.175,1.1722,1.1722,1.165,1.1644,1.1615,1.1585,1.1566,1.1659,1.1605,1.1655,1.1729,1.1746,1.1759,1.177,1.1805,1.1818,1.1661,1.1662,1.1662,0,1.2049,1.2033,1.196,1.196,1.1941,1.1855,1.187,1.1842,1.1787,1.1777,1.1741,1.1706,1.1668,1.1679,1.1702,1.1689,1.1693,1.1661,1.1763,1.1773,1.1783,1.1815,1.1828,1.1668,1.1667,1.1667,1.1666,0,1.213,1.212,1.2138,1.2087,1.2071,1.2078,1.2009,1.2002,1.1957,1.1913,1.1916,1.1869,1.1838,1.1838,1.1792,1.1844,1.1825,1.1778,1.1714,1.1806,1.1835,1.1847,1.1677,1.1675,1.1673,1.1671,0,0,1.2291,1.2205,1.2212,1.219,1.213,1.2122,1.2128,1.2098,1.2095,1.2062,1.2065,1.2046,1.2003,1.1982,1.1933,1.1948,1.2027,1.1898,1.1896,1.1924,1.2084,1.212,1.2135,1.1992,1.1994,1.1996,1.2088,0,1.2378,1.238,1.2318,1.2339,1.2331,1.2253,1.2258,1.2224,1.2184,1.2174,1.2131,1.2119,1.2062,1.2049,1.2061,1.2015,1.2058,1.2008,1.1996,1.1997,1.2009,1.2149,1.2186,1.2274,1.2099,1.21,1.2102,0,1.2477,1.2451,1.2471,1.2414,1.2408,1.2414,1.2384,1.2375,1.2336,1.2306,1.2286,1.2232,1.2236,1.2178,1.2184,1.2151,1.2144,1.2122,1.2124,1.2118,1.2054,1.2148,1.2301,1.2314,1.2119,1.2117,1.2116,0,1.2594,1.2564,1.2573,1.2556,1.249,1.2496,1.2469,1.2427,1.2415,1.239,1.2382,1.2359,1.2346,1.233,1.2272,1.2235,1.2287,1.2222,1.2264,1.2265,1.2276,1.2276,1.2429,1.2273,1.2273,1.2273,1.2272,0,1.2695,1.2711,1.2625,1.263,1.2647,1.2578,1.2597,1.2563,1.2527,1.2526,1.2458,1.2459,1.2383,1.2377,1.2332,1.2345,1.234,1.2318,1.2306,1.2323,1.2326,1.2316,1.2308,1.2276,1.2275,1.2275,1.2274,0,1.2827,1.277,1.2775,1.2713,1.2698,1.2714,1.2661,1.2665,1.2624,1.2625,1.2621,1.2557,1.2546,1.2488,1.2463,1.2434,1.2463,1.2439,1.2476,1.2468,1.2512,1.2509,1.2664,1.2681,1.2515,1.2517,1.2518,0,1.2894,1.2905,1.2846,1.2841,1.2817,1.2809,1.2797,1.2732,1.2723,1.2682,1.2692,1.2676,1.2659,1.2647,1.2599,1.2582,1.2556,1.2612,1.2553,1.2572,1.2557,1.2557,1.2559,1.2624,1.2626,1.2628,1.2629,0,1.302,1.2993,1.2978,1.2956,1.2944,1.2923,1.2898,1.2898,1.2826,1.282,1.2809,1.2797,1.2774,1.276,1.2735,1.2709,1.2658,1.2649,1.2658,1.2675,1.2696,1.2686,1.251,1.2645,1.2643,1.2642,1.2641,1.2641,1.3121,1.3128,1.3089,1.3076,1.3052,1.3031,1.3033,1.2994,1.2983,1.2959,1.2922,1.2917,1.2883,1.2844,1.2823,1.282,1.279,1.2802,1.2805,1.2809,1.2819,1.2699,1.2815,1.2815,1.2814,1.2814,1.2813,0,1.3244,1.3216,1.3206,1.3174,1.3165,1.312,1.3092,1.3088,1.3084,1.3056,1.3043,1.3032,1.302,1.2974,1.2957,1.2964,1.294,1.2962,1.296,1.2955,1.2846,1.284,1.2981,1.2981,1.2981,1.2981,1.2981,1.2981,1.3306,1.3317,1.3286,1.3286,1.3258,1.3252,1.324,1.3223,1.32,1.3192,1.3182,1.3152,1.3118,1.3099,1.3087,1.3074,1.3071,1.3101,1.308,1.2978,1.2962,1.2947,1.2941,1.3101,1.3101,1.3189,1.319,1.3191]},{"header":{"parameterUnit":"m.s-1","parameterCategory":1,"la1":30.2991,"la2":30.254,"lo1":-89.0895,"lo2":-89.0444,"dy":0.0017,"dx":0.0017,"nx":28,"ny":28,"refTime":"2025-01-19T09:00:00:Z","depth":0,"parameterNumber":3,"parameterNumberName":"V-component_of_WINDS"},"data":[0,0,0,0,0,0,0,0,0,0,0,0,0,0,0,0,0,0,0,0,0,0,0,0,0,0,0,0,0,0,0,0,0,0,0,0,0,0,0,0,0,0,0,0,0,0,0,0,0,0,0,0,0,0,0,0,0,0,2.6921,2.6921,0,2.6969,2.697,2.697,2.6918,2.6916,2.6914,2.6912,2.696,2.6963,2.6967,0,0,0,0,0,0,0,0,0,0,0,0,0,2.6781,2.6784,2.6921,2.6922,2.6922,2.6969,2.697,2.697,2.6918,2.6916,2.6913,2.6911,2.6959,2.6963,2.6967,0,0,0,0,0,0,0,0,0,0,0,0,0,2.6837,2.6785,2.6921,2.6902,2.6901,2.6969,2.697,2.697,2.6919,2.6916,2.6913,2.691,2.6958,2.6963,2.6967,2.7056,0,0,2.6982,2.6984,0,0,0,0,0,0,0,0,2.6834,2.6842,2.6904,2.6903,2.6902,2.6934,2.6938,2.6999,2.6919,2.6912,2.6912,2.6908,2.6954,2.6959,2.6974,2.7059,2.7061,2.6982,2.6985,2.6987,2.6988,0,0,0,0,0,0,0,2.683,2.684,2.694,2.6905,2.6904,2.689,2.6895,2.6949,2.6949,2.6912,2.6909,2.6915,2.6953,2.697,2.6975,2.7061,2.6982,2.6986,2.6989,2.6991,2.7218,2.7221,0,0,0,0,0,0,2.6829,2.6837,2.6938,2.6941,2.686,2.6895,2.69,2.6927,2.6948,2.6949,2.6918,2.6912,2.6963,2.697,2.6977,2.7081,2.6987,2.6991,2.6994,2.7215,2.7219,2.7222,0,0,0,0,0,0,2.6826,2.6838,2.6936,2.6888,2.69,2.69,2.6931,2.693,2.6947,2.6952,2.6952,2.6935,2.6961,2.697,2.7036,2.7082,2.6994,2.6998,2.7211,2.7216,2.722,2.7291,0,0,0,0,0,0,2.6822,2.6838,2.6872,2.6889,2.6902,2.6997,2.6934,2.6933,2.6955,2.6949,2.6969,2.6969,2.696,2.703,2.7041,2.7087,2.7002,2.7207,2.7213,2.7219,2.7285,2.7298,2.7309,0,0,0,0,0,2.6817,2.6891,2.6874,2.6887,2.6946,2.6999,2.7007,2.6994,2.6959,2.6993,2.6996,2.6969,2.7075,2.7037,2.7049,2.7097,2.7204,2.7211,2.7218,2.7279,2.7295,2.7308,0,0,0,0,0,0,2.688,2.6893,2.6875,2.6956,2.6977,2.699,2.7033,2.7012,2.7043,2.7036,2.7019,2.7024,2.7094,2.7102,2.7059,2.7183,2.7133,2.7143,2.7175,2.719,2.7202,2.7199,2.7005,0,0,0,0,0,2.6903,2.6945,2.6954,2.7025,2.7036,2.7033,2.7056,2.7044,2.7065,2.7074,2.7082,2.7103,2.714,2.7166,2.7201,2.7285,2.7288,2.7324,2.7336,2.7345,2.7355,2.7398,2.7413,2.7246,2.7246,2.7245,0,0,2.6951,2.6963,2.6992,2.7038,2.7052,2.7096,2.7041,2.709,2.7122,2.7081,2.7144,2.715,2.7172,2.7247,2.7281,2.7256,2.7401,2.7355,2.7363,2.7366,2.7407,2.7422,2.7437,2.7251,2.725,2.7249,0,0,2.7061,2.7076,2.7135,2.7151,2.7173,2.717,2.7184,2.7201,2.7203,2.7266,2.7236,2.7272,2.7338,2.7355,2.7372,2.7485,2.746,2.7497,2.756,2.7602,2.7615,2.7627,2.7666,2.7681,2.7505,2.7506,2.7506,0,2.7119,2.7184,2.7168,2.7219,2.724,2.7204,2.7263,2.7278,2.7312,2.7326,2.7298,2.7378,2.739,2.7468,2.7495,2.751,2.7525,2.7495,2.7615,2.7626,2.7637,2.7674,2.7689,2.751,2.7509,2.7509,2.7509,0,2.7252,2.7298,2.7343,2.7375,2.7401,2.7456,2.7447,2.7474,2.746,2.7459,2.7522,2.7535,2.7571,2.7589,2.7575,2.7664,2.7647,2.7617,2.7567,2.7657,2.7692,2.7706,2.7516,2.7514,2.7513,2.7512,0,0,2.7406,2.7427,2.7444,2.7457,2.7478,2.7512,2.7564,2.7599,2.7622,2.7646,2.7688,2.7743,2.7715,2.7734,2.7721,2.7759,2.7846,2.7723,2.7724,2.7745,2.7942,2.7965,2.7982,2.7829,2.7831,2.7834,2.794,0,2.7516,2.7607,2.7593,2.768,2.7721,2.7686,2.7731,2.7748,2.7748,2.7782,2.7781,2.782,2.778,2.7791,2.7826,2.7828,2.7885,2.782,2.7867,2.7869,2.7864,2.8,2.8025,2.8125,2.7954,2.7956,2.7958,0,2.7658,2.7685,2.7776,2.7789,2.7805,2.7846,2.7876,2.7909,2.7926,2.7924,2.7944,2.7924,2.7974,2.7923,2.7991,2.7947,2.7965,2.7969,2.7972,2.7976,2.7919,2.8008,2.8157,2.8172,2.7979,2.7977,2.7976,0,2.7759,2.7819,2.7881,2.7893,2.7909,2.7939,2.7947,2.7961,2.7982,2.8008,2.8021,2.8053,2.807,2.8094,2.8082,2.8046,2.8152,2.81,2.8151,2.8151,2.8176,2.8174,2.8329,2.8187,2.8187,2.8187,2.8186,0,2.7884,2.7941,2.7926,2.7965,2.8026,2.8009,2.807,2.8074,2.8087,2.8124,2.8095,2.8131,2.8113,2.8147,2.8138,2.8195,2.8203,2.8201,2.8198,2.8204,2.8205,2.8216,2.8209,2.8191,2.819,2.8189,2.8188,0,2.8009,2.8001,2.8066,2.8075,2.8079,2.8124,2.8131,2.8166,2.8163,2.821,2.822,2.8215,2.8253,2.8244,2.8285,2.8279,2.8351,2.8339,2.8345,2.8342,2.8393,2.8388,2.8561,2.8583,2.8427,2.8429,2.843,0,2.8089,2.8132,2.8145,2.8168,2.8178,2.8215,2.8236,2.8219,2.8242,2.8264,2.8296,2.8331,2.8358,2.842,2.842,2.8451,2.8439,2.8498,2.8444,2.8448,2.844,2.8437,2.8441,2.8509,2.8511,2.8512,2.8513,0,2.8232,2.8225,2.8257,2.8287,2.8313,2.8335,2.8355,2.8375,2.836,2.8387,2.8425,2.8446,2.8487,2.8522,2.855,2.8557,2.8533,2.853,2.8543,2.855,2.8551,2.855,2.8374,2.8526,2.8525,2.8524,2.8523,2.8523,2.8337,2.8372,2.8387,2.8422,2.8435,2.8454,2.8486,2.8486,2.8518,2.855,2.8538,2.8581,2.8595,2.863,2.864,2.8673,2.8651,2.8671,2.8675,2.868,2.8687,2.8546,2.8678,2.8678,2.8677,2.8677,2.8677,0,2.8478,2.8484,2.8517,2.8545,2.8573,2.8546,2.8566,2.8591,2.8629,2.8644,2.8671,2.8714,2.8747,2.8748,2.8779,2.8805,2.8794,2.8813,2.8811,2.8813,2.8705,2.869,2.8821,2.8821,2.8821,2.8821,2.8821,2.8821,2.8554,2.8613,2.8607,2.8671,2.8677,2.8719,2.8733,2.8749,2.8761,2.881,2.8837,2.8837,2.8846,2.8877,2.8905,2.8904,2.8917,2.894,2.8936,2.8835,2.8821,2.8807,2.8793,2.8943,2.8943,2.9041,2.9041,2.9042]}]]